Location: Auttagershofen
(48.1940°N, 10.0237°E)
Time: 15:59:21
(UTC+00:00)

BREEZE-M DEB (TANK) - Pass Details

Date: 18 January 2026
Orbit: 314 x 16556 km, 49.5° (Epoch: 10 February)

Event Time Altitude Azimuth Distance (km) Brightness Sun altitude
Exits shadow 05:07:26 32° 248° (WSW) 1,238 4.1 -18.9°
Maximum altitude 05:08:57 43° 202° (SSW) 1,255 4.5 -18.6°
Drops below altitude 10° 05:19:27 10° 136° (SE) 5,456 8.7 -16.9°
Sets 05:27:51 0° 133° (SE) 8,696 10.0 -15.5°
